TimeCDT,TemperatureF,Dew PointF,Humidity,Sea Level PressureIn,VisibilityMPH,Wind Direction,Wind SpeedMPH,Gust SpeedMPH,PrecipitationIn,Events,Conditions,WindDirDegrees,DateUTC
12:54 AM,62.1,59.0,90,30.17,10.0,Calm,Calm,-,N/A,,Clear,0,2012-10-05 05:54:00
1:54 AM,63.0,59.0,87,30.17,10.0,Calm,Calm,-,N/A,,Clear,0,2012-10-05 06:54:00
2:54 AM,61.0,59.0,93,30.15,8.0,Calm,Calm,-,N/A,,Clear,0,2012-10-05 07:54:00
3:54 AM,60.1,57.9,93,30.15,7.0,Calm,Calm,-,N/A,,Clear,0,2012-10-05 08:54:00
4:54 AM,59.0,57.0,93,30.15,5.0,Calm,Calm,-,N/A,,Clear,0,2012-10-05 09:54:00
5:54 AM,57.9,55.9,93,30.15,8.0,Calm,Calm,-,N/A,,Clear,0,2012-10-05 10:54:00
6:54 AM,57.0,55.9,96,30.16,5.0,Calm,Calm,-,N/A,,Clear,0,2012-10-05 11:54:00
7:54 AM,62.1,60.1,93,30.16,5.0,Calm,Calm,-,N/A,,Clear,0,2012-10-05 12:54:00
8:54 AM,70.0,64.0,81,30.16,10.0,Calm,Calm,-,N/A,,Clear,0,2012-10-05 13:54:00
9:54 AM,73.9,62.1,66,30.16,10.0,South,4.6,-,N/A,,Clear,180,2012-10-05 14:54:00
10:54 AM,79.0,62.1,56,30.14,10.0,SSE,5.8,-,N/A,,Clear,160,2012-10-05 15:54:00
11:54 AM,82.0,57.0,42,30.12,10.0,Calm,Calm,-,N/A,,Clear,0,2012-10-05 16:54:00
12:54 PM,82.9,57.9,42,30.09,10.0,Calm,Calm,-,N/A,,Clear,0,2012-10-05 17:54:00
1:54 PM,82.9,53.1,36,30.06,10.0,Calm,Calm,-,N/A,,Partly Cloudy,0,2012-10-05 18:54:00
2:54 PM,84.0,57.0,40,30.05,10.0,SW,6.9,-,N/A,,Partly Cloudy,230,2012-10-05 19:54:00
3:54 PM,84.0,57.0,40,30.03,10.0,SSW,4.6,-,N/A,,Partly Cloudy,210,2012-10-05 20:54:00
4:54 PM,82.9,57.9,42,30.00,10.0,South,8.1,-,N/A,,Clear,190,2012-10-05 21:54:00
5:54 PM,80.1,59.0,48,30.00,10.0,South,4.6,-,N/A,,Clear,190,2012-10-05 22:54:00
6:54 PM,73.0,60.1,64,30.01,10.0,Calm,Calm,-,N/A,,Clear,0,2012-10-05 23:54:00
7:54 PM,69.1,62.1,78,30.01,10.0,Calm,Calm,-,N/A,,Clear,0,2012-10-06 00:54:00
8:54 PM,66.0,61.0,84,30.01,10.0,Calm,Calm,-,N/A,,Clear,0,2012-10-06 01:54:00
9:54 PM,64.9,61.0,87,30.02,10.0,Calm,Calm,-,N/A,,Clear,0,2012-10-06 02:54:00
10:54 PM,64.0,60.1,87,30.03,10.0,Calm,Calm,-,N/A,,Clear,0,2012-10-06 03:54:00
11:54 PM,64.0,61.0,90,30.01,10.0,Calm,Calm,-,N/A,,Clear,0,2012-10-06 04:54:00